COSMOS 2433 (720)

Last updated on Mon Oct 13 2025 00:03:19 GMT+0000 (Coordinated Universal Time)

1 32275U 07052A 25285.14738950 -.00000041 00000+0 00000+0 0 9996 2 32275 65.7143 324.2756 0005852 237.0539 122.9515 2.13104041139773
UTC large
Height (km)
Speed (km/s)
/
Latitude / Longitude
Inclination (degrees)
Orbital Period (minutes)
Azimuth
Elevation
Range (km)
Doppler Factor

Next 0 passes for location: London (51.5072 / 0.1276)

Sorry there are no passes over London.